Location: Robledo de Chavela
(40.5014°N, 4.2377°W)
Time: 09:50:18
(UTC+00:00)

NOSS 3-1 (C) - Pass Details

Date: 18 April 2024
Orbit: 652 x 1553 km, 63.4° (Epoch: 15 May)

Event Time Altitude Azimuth Distance (km) Brightness Sun altitude
Rises 20:02:13 0° 235° (SW) 3,013 6.5 -11.9°
Reaches altitude 10° 20:04:30 10° 243° (WSW) 2,154 5.8 -12.3°
Maximum altitude 20:09:05 41° 314° (NW) 1,106 4.4 -13.1°
Drops below altitude 10° 20:14:30 10° 24° (NNE) 2,553 5.8 -14.0°
Sets 20:17:27 0° 31° (NNE) 3,643 6.5 -14.5°
